Hourly Data Report for May 14, 2022

TRENTON A
ONTARIO
Current Station Operator: DND

44°07'08.000" N
77°31'41.000" W
86.30 m
6158875
71621
YTR

Download Data

Hourly Data (May 2022)
Hourly Data Report for May 14, 2022
TIME
LST
Temp Definition
°C
Dew Point Definition
°C
Rel Hum Definition
%
Precip. Amount Definition
mm

Wind Dir Definition
10's deg

Wind Spd Definition
km/h
Visibility Definition
km
Stn Press Definition
kPa
Hmdx Definition


Wind Chill Definition


Weather Definition


00:00 16.1 14.2 89   2 4 24.1 100.74     LegendNANA
01:00 15.5 14.2 92   3 4 24.1 100.71     LegendNANA
02:00 15.8 14.9 94     0 24.1 100.68     LegendNANA
03:00 15.0 14.3 96     0 24.1 100.68     LegendNANA
04:00 16.8 14.5 86   19 9 24.1 100.68     LegendNANA
05:00 16.3 14.5 89   15 8 24.1 100.70     LegendNANA
06:00 16.6 14.6 88   20 5 24.1 100.74     LegendNANA
07:00 17.9 15.4 85   20 8 24.1 100.72     LegendNANA
08:00 20.5 15.6 73   21 5 24.1 100.69 25   LegendNANA
09:00 21.8 16.1 70   21 13 24.1 100.67 26   LegendNANA
10:00 22.2 16.2 69   21 15 24.1 100.63 27   LegendNANA
11:00 22.3 16.0 68   22 17 24.1 100.60 27   LegendNANA
12:00 23.1 16.3 66   23 15 24.1 100.49 28   LegendNANA
13:00 23.8 17.1 66   24 15 24.1 100.42 29   LegendNANA
14:00 24.4 16.8 63   23 17 24.1 100.34 30   LegendNANA
15:00 24.6 16.6 61   24 13 24.1 100.28 30   LegendNANA
16:00 25.7 15.9 55   23 15 24.1 100.16 30   LegendNANA
17:00 25.4 15.6 55   22 11 24.1 100.08 30   LegendNANA
18:00 23.6 15.6 61   22 8 24.1 100.03 28   LegendNANA
19:00 22.5 14.8 62   28 4 24.1 100.04 26   LegendNANA
20:00 21.3 15.8 71   27 4 24.1 100.07 26   LegendNANA
21:00 20.8 16.8 78   20 5 24.1 100.07 26   LegendNANA
22:00 20.0 16.8 82   17 4 24.1 100.09 25   LegendNANA
23:00 19.3 16.6 84   13 5 19.3 100.11     Thunderstorms

Notes on Data Quality.

Legend

  • E = Estimated
  • M = Missing
  • NA = Not Available*
  • [empty] = Indicates an unobserved value
Date modified: